Location: Hradec Kralove
(50.2170°N, 15.8330°E)
Time: 08:22:15
(UTC+01:00)

X-37B - Pass Details

Date: 11 December 2022
Orbit: 277 x 277 km, 45.0° (Epoch: 01 November)

Event Time Altitude Azimuth Distance (km) Brightness Sun altitude
Rises 18:33:10 0° 252° (WSW) 1,914 5.4 -24.3°
Reaches altitude 10° 18:35:16 10° 237° (WSW) 1,101 3.7 -24.6°
Enters shadow 18:35:21 11° 236° (SW) 1,071 3.6 -24.6°
